This is the latest recevied weather packets stored in our database for station/object OZ1IEP-5. If no packets are shown the sender has not sent any weather packets the latest 10 day(s).
| Time | Temp. | Humidity | Pressure | Rain* | Wind** | Luminosity | Snow |
|---|---|---|---|---|---|---|---|
| 1777569606 | 15° C | 57% | 1027.3 hPa | 0 mm | - | 49 W/m² | - |
| 1777569006 | 15° C | 55% | 1027.3 hPa | 0 mm | - | 65 W/m² | - |
| 1777568408 | 15.56° C | 55% | 1027.3 hPa | 0 mm | - | 62 W/m² | - |
| 1777567806 | 15.56° C | 55% | 1027.3 hPa | 0 mm | - | 76 W/m² | - |
| 1777567206 | 15.56° C | 57% | 1027.3 hPa | 0 mm | - | 42 W/m² | - |
| 1777566609 | 15.56° C | 60% | 1027.4 hPa | 0 mm | - | 56 W/m² | - |
| 1777566006 | 15.56° C | 59% | 1027.5 hPa | 0 mm | - | 44 W/m² | - |
| 1777565406 | 15.56° C | 59% | 1027.6 hPa | 0 mm | - | 58 W/m² | - |
| 1777564809 | 15.56° C | 60% | 1027.6 hPa | 0 mm | - | 230 W/m² | - |
| 1777564206 | 15.56° C | 58% | 1027.7 hPa | 0 mm | - | 77 W/m² | - |
| 1777563606 | 15.56° C | 58% | 1027.7 hPa | 0 mm | - | 51 W/m² | - |
| 1777563008 | 15.56° C | 57% | 1027.7 hPa | 0 mm | - | 69 W/m² | - |
| 1777562406 | 15.56° C | 56% | 1027.8 hPa | 0 mm | - | 237 W/m² | - |
| 1777561806 | 15.56° C | 56% | 1027.8 hPa | 0 mm | - | 63 W/m² | - |
| 1777561208 | 15.56° C | 57% | 1027.8 hPa | 0 mm | - | 489 W/m² | - |
| 1777560605 | 15.56° C | 53% | 1027.8 hPa | 0 mm | - | 469 W/m² | - |
| 1777560006 | 15.56° C | 54% | 1028 hPa | 0 mm | - | 533 W/m² | - |
| 1777559409 | 15.56° C | 55% | 1028.2 hPa | 0 mm | - | 557 W/m² | - |
| 1777558806 | 15.56° C | 56% | 1028.3 hPa | 0 mm | - | 577 W/m² | - |
| 1777558206 | 15.56° C | 54% | 1028.3 hPa | 0 mm | - | 598 W/m² | - |
| 1777557607 | 15.56° C | 56% | 1028.4 hPa | 0 mm | - | 617 W/m² | - |
| 1777557006 | 15.56° C | 55% | 1028.4 hPa | 0 mm | - | 638 W/m² | - |
| 1777556406 | 15.56° C | 57% | 1028.6 hPa | 0 mm | - | 657 W/m² | - |
| 1777555809 | 15.56° C | 55% | 1028.7 hPa | 0 mm | - | 670 W/m² | - |
| 1777555206 | 15.56° C | 56% | 1028.8 hPa | 0 mm | - | 684 W/m² | - |
* Rain latest hour (hover to see other rain measurements)
** Current wind speed in m/s (hover to see current wind gust speed)